Regional Weather Roundup
Issued by NWS

Home | Current Version | Previous Version | Text Only | Print | Product List | Glossary On
Versions: 1 2 3 4 5 6 7 8 9 10 11 12 13 14 15 16 17 18 19 20 21 22 23 24 25 26 27 28 29 30 31 32 33 34 35 36 37 38 39 40 41 42 43 44 45 46 47 48 49 50
176
ASUS44 KBMX 310710
RWRAL

ALABAMA REGIONAL WEATHER ROUNDUP
NATIONAL WEATHER SERVICE BIRMINGHAM AL
200 AM CDT TUE MAY 31 2016

NOTE: "FAIR" INDICATES FEW OR NO CLOUDS BELOW 12,000 FEET
WITH NO SIGNIFICANT WEATHER AND/OR OBSTRUCTIONS TO VISIBILITY.

THE REMARK "TC" DENOTES TEMPERATURE IN DEGREES CELSIUS.

ALZ001>011-014-016>018-020-310800-
NORTH ALABAMA

CITY           SKY/WX    TMP DP  RH WIND       PRES   REMARKS
MUSCLE SHOALS  MOCLDY    67  62  84 CALM      29.95F
HUNTSVILLE     CLEAR     68  60  75 CALM      29.94F
DECATUR        CLEAR     66  61  84 CALM      29.94F
HALEYVILLE     FAIR      63  61  93 CALM      29.96F
GADSDEN        PTCLDY    66  64  93 CALM      29.93F
$$

ALZ012-013-022-023-030>036-040>044-310800-
WEST CENTRAL ALABAMA

CITY           SKY/WX    TMP DP  RH WIND       PRES   REMARKS
TUSCALOOSA     PTCLDY    70  68  93 CALM      29.92F
$$

ALZ015-024>027-033>036-040>044-310800-
CENTRAL ALABAMA

CITY           SKY/WX    TMP DP  RH WIND       PRES   REMARKS
BIRMINGHAM     CLOUDY    71  66  84 CALM      29.95F
MONTGOMERY     CLEAR     71  66  84 CALM      29.91S
SHELBY CO ARPT PTCLDY    70  66  87 CALM      29.92F
MAXWELL AFB    CLEAR     70  69  97 S2        29.90F
GREENVILLE     FAIR      71  66  84 CALM      29.92F
$$

ALZ019-021-028-029-037-038-045>048-310800-
EAST CENTRAL ALABAMA

CITY           SKY/WX    TMP DP  RH WIND       PRES   REMARKS
ANNISTON       CLEAR     68  63  84 NE3       29.93F
ALEXANDER CITY CLEAR     67  67 100 CALM      29.93S
AUBURN         CLEAR    N/A N/A N/A CALM      29.94F
$$

ALZ051>064-310800-
SOUTHWEST ALABAMA

CITY           SKY/WX    TMP DP  RH WIND       PRES   REMARKS
MOBILE         PTCLDY    70  67  90 W3        29.94F
BROOKLEY FIELD PTCLDY    71  68  90 CALM      29.94F
EVERGREEN      CLEAR     68  66  93 CALM      29.93F
$$

ALZ049-050-065>069-310800-
SOUTHEAST ALABAMA

CITY           SKY/WX    TMP DP  RH WIND       PRES   REMARKS
DOTHAN         CLEAR     72  68  87 W3        29.95F
OZARK          CLEAR     70  68  92 W3        29.91F
TROY           PTCLDY    69  66  90 CALM      29.92F
EUFAULA        FAIR      68  64  87 CALM      29.90F
$$




USA.gov is the U.S. government's official web portal to all federal, state and local government web resources and services.